Weather History for KGDJ - June, 2013

Change the Weather History Date:

Saturday, June 22, 2013

  Actual Average (KSEP) Record (KSEP)
Temperature  
Mean Temperature 86 °F -  
Max Temperature 98 °F 90 °F 103 °F (1953)
Min Temperature 74 °F 69 °F 62 °F (1925)
Cooling Degree Days 21    
Growing Degree Days 36 (Base 50)    
Moisture  
Dew Point 63 °F    
Average Humidity 47    
Maximum Humidity 76    
Minimum Humidity 25    
Precipitation  
Precipitation 0.00 in - - ()
Sea Level Pressure  
Sea Level Pressure 29.97 in    
Wind  
Wind Speed 9 mph (SE)    
Max Wind Speed 18 mph    
Max Gust Speed 29 mph    
Visibility 10 miles    
Events      
Averages and records for this station are not official NWS values.
T = Trace of Precipitation, MM = Missing Value Source: NWS Daily Summary

Daily Weather History Graph

Daily Weather History Graph

Search for Another Location

Airport or City:

Trip Planner

Search our weather history database for the weather conditions in past years. The results will help you decide how hot, cold, wet, or windy it might be!

Date:

Astronomy

Jun. 22, 2013 Rise Set
Actual Time 6:24 AM CDT 8:41 PM CDT
Civil Twilight 5:56 AM CDT 9:10 PM CDT
Nautical Twilight 5:21 AM CDT 9:45 PM CDT
Astronomical Twilight 4:43 AM CDT 10:23 PM CDT
Moon 8:01 PM CDT 5:35 AM CDT
Length of Visible Light 15h 14m
Length of Day
14h 17m
Waxing Gibbous, 99% of the Moon is Illuminated
Jun 22
Waxing Gibbous
Jun 23
Full
Jun 29
Last Quarter
Jul 8
New
Jul 15
First Quarter

Hourly Weather History & Observations

Time (CDT) Temp. Heat Index Dew Point Humidity Pressure Visibility Wind Dir Wind Speed Gust Speed Precip Events Conditions
12:15 AM 84.0 °F 85.2 °F 63.5 °F 50% 30.01 in 10.0 mi SE 5.8 mph - N/A   Clear
12:35 AM 83.3 °F 84.8 °F 64.4 °F 53% 30.01 in 10.0 mi SE 6.9 mph - N/A   Clear
12:55 AM 82.8 °F 84.3 °F 64.6 °F 54% 30.00 in 10.0 mi ESE 8.1 mph - N/A   Clear
1:15 AM 82.2 °F 83.8 °F 64.6 °F 55% 29.99 in 10.0 mi SE 8.1 mph - N/A   Clear
1:35 AM 81.1 °F 82.8 °F 64.8 °F 57% 29.99 in 10.0 mi SE 5.8 mph - N/A   Clear
1:55 AM 81.1 °F 82.7 °F 64.0 °F 56% 29.99 in 10.0 mi SE 5.8 mph - N/A   Clear
2:15 AM 81.7 °F 83.0 °F 63.5 °F 54% 29.99 in 10.0 mi SE 5.8 mph - N/A   Clear
2:35 AM 79.3 °F - 64.9 °F 61% 29.99 in 10.0 mi ESE 4.6 mph - N/A   Clear
2:55 AM 78.8 °F - 64.9 °F 62% 29.99 in 10.0 mi SE 3.5 mph - N/A   Clear
3:15 AM 79.2 °F - 64.0 °F 60% 29.99 in 10.0 mi SE 3.5 mph - N/A   Clear
3:35 AM 77.4 °F - 64.8 °F 65% 29.98 in 10.0 mi ESE 5.8 mph - N/A   Clear
3:55 AM 77.0 °F - 64.9 °F 66% 29.98 in 10.0 mi ESE 4.6 mph - N/A   Clear
4:15 AM 76.8 °F - 65.3 °F 67% 29.98 in 10.0 mi ESE 3.5 mph - N/A   Clear
4:35 AM 77.0 °F - 65.5 °F 67% 29.98 in 10.0 mi SE 4.6 mph - N/A   Clear
4:55 AM 76.6 °F - 65.5 °F 68% 29.98 in 10.0 mi ESE 4.6 mph - N/A   Clear
5:15 AM 76.5 °F - 65.3 °F 68% 29.98 in 10.0 mi SE 4.6 mph - N/A   Clear
5:35 AM 75.2 °F - 65.8 °F 73% 29.99 in 10.0 mi ESE 4.6 mph - N/A   Clear
5:55 AM 75.2 °F - 66.2 °F 73% 30.00 in 10.0 mi ESE 5.8 mph - N/A   Clear
6:15 AM 75.2 °F - 66.2 °F 73% 30.01 in 10.0 mi SE 6.9 mph - N/A   Clear
6:35 AM 74.8 °F - 66.2 °F 74% 30.01 in 10.0 mi SE 4.6 mph - N/A   Clear
6:55 AM 74.8 °F - 66.4 °F 75% 30.02 in 10.0 mi SE 5.8 mph - N/A   Clear
7:15 AM 74.8 °F - 66.9 °F 76% 30.02 in 10.0 mi SE 6.9 mph - N/A   Clear
7:35 AM 75.7 °F - 67.6 °F 76% 30.03 in 10.0 mi ESE 6.9 mph - N/A   Clear
7:55 AM 76.6 °F - 68.0 °F 75% 30.03 in 10.0 mi SE 6.9 mph - N/A   Clear
8:15 AM 78.3 °F - 69.1 °F 73% 30.04 in 10.0 mi SE 6.9 mph - N/A   Clear
8:35 AM 79.3 °F - 69.4 °F 72% 30.04 in 10.0 mi SE 9.2 mph 17.3 mph N/A   Clear
8:55 AM 81.1 °F 84.5 °F 69.8 °F 68% 30.04 in 10.0 mi SSE 12.7 mph 17.3 mph N/A   Clear
9:15 AM 81.9 °F 85.6 °F 69.8 °F 67% 30.04 in 10.0 mi South 17.3 mph - N/A   Clear
9:35 AM 83.3 °F 87.4 °F 69.8 °F 64% 30.04 in 10.0 mi South 11.5 mph 18.4 mph N/A   Clear
9:55 AM 83.8 °F 87.0 °F 68.4 °F 59% 30.04 in 10.0 mi SSE 11.5 mph 19.6 mph N/A   Clear
10:15 AM 85.6 °F 88.5 °F 67.5 °F 54% 30.04 in 10.0 mi SSE 12.7 mph 19.6 mph N/A   Clear
10:35 AM 86.9 °F 89.3 °F 66.2 °F 50% 30.04 in 10.0 mi SSE 12.7 mph 18.4 mph N/A   Clear
10:55 AM 88.3 °F 90.2 °F 65.3 °F 46% 30.04 in 10.0 mi SSE 13.8 mph 21.9 mph N/A   Clear
11:15 AM 88.9 °F 90.3 °F 64.2 °F 44% 30.04 in 10.0 mi South 11.5 mph 20.7 mph N/A   Clear
11:35 AM 89.8 °F 90.4 °F 62.6 °F 40% 30.04 in 10.0 mi SSE 13.8 mph 23.0 mph N/A   Clear
11:55 AM 90.7 °F 91.3 °F 62.4 °F 39% 30.04 in 10.0 mi SSE 12.7 mph 19.6 mph N/A   Clear
12:15 PM 91.8 °F 92.2 °F 61.9 °F 37% 30.04 in 10.0 mi SE 13.8 mph 19.6 mph N/A   Clear
12:35 PM 92.7 °F 92.5 °F 60.6 °F 34% 30.03 in 10.0 mi SSE 13.8 mph 18.4 mph N/A   Clear
12:55 PM 93.4 °F 93.5 °F 61.3 °F 34% 30.02 in 10.0 mi SSE 16.1 mph 23.0 mph N/A   Clear
1:15 PM 93.9 °F 93.2 °F 59.0 °F 31% 30.02 in 10.0 mi SE 16.1 mph 19.6 mph N/A   Clear
1:35 PM 94.5 °F 94.0 °F 59.7 °F 31% 30.01 in 10.0 mi SSE 13.8 mph 20.7 mph N/A   Clear
1:55 PM 95.2 °F 95.1 °F 59.7 °F 31% 30.00 in 10.0 mi SE 17.3 mph 24.2 mph N/A   Clear
2:15 PM 95.7 °F 95.1 °F 58.6 °F 29% 29.99 in 10.0 mi SSE 17.3 mph 24.2 mph N/A   Clear
2:35 PM 96.3 °F 95.9 °F 59.4 °F 29% 29.98 in 10.0 mi SE 17.3 mph 24.2 mph N/A   Clear
2:55 PM 96.6 °F 96.0 °F 58.5 °F 28% 29.97 in 10.0 mi SSE 11.5 mph 20.7 mph N/A   Clear
3:15 PM 97.5 °F 96.5 °F 57.4 °F 26% 29.96 in 10.0 mi SSE 16.1 mph 28.8 mph N/A   Clear
3:35 PM 97.2 °F 96.4 °F 58.1 °F 27% 29.95 in 10.0 mi SSE 12.7 mph 26.5 mph N/A   Clear
3:55 PM 97.7 °F 96.7 °F 57.7 °F 26% 29.94 in 10.0 mi SE 12.7 mph 26.5 mph N/A   Clear
4:15 PM 97.7 °F 96.7 °F 57.2 °F 26% 29.93 in 10.0 mi SSE 16.1 mph 23.0 mph N/A   Clear
4:35 PM 97.9 °F 96.6 °F 56.7 °F 25% 29.92 in 10.0 mi SE 18.4 mph 24.2 mph N/A   Clear
4:55 PM 98.6 °F 98.0 °F 58.3 °F 26% 29.92 in 10.0 mi SSE 16.1 mph 21.9 mph N/A   Clear
5:15 PM 98.1 °F 97.2 °F 57.6 °F 26% 29.92 in 10.0 mi SSE 12.7 mph 23.0 mph N/A   Clear
5:35 PM 97.7 °F 96.7 °F 57.7 °F 26% 29.91 in 10.0 mi SSE 16.1 mph 23.0 mph N/A   Clear
5:55 PM 97.5 °F 96.9 °F 57.9 °F 27% 29.90 in 10.0 mi SE 17.3 mph 24.2 mph N/A   Clear
6:15 PM 97.0 °F 96.1 °F 57.6 °F 27% 29.89 in 10.0 mi SE 13.8 mph 24.2 mph N/A   Clear
6:35 PM 96.3 °F 95.1 °F 57.4 °F 27% 29.88 in 10.0 mi SE 17.3 mph 24.2 mph N/A   Clear
6:55 PM 96.1 °F 95.2 °F 57.7 °F 28% 29.89 in 10.0 mi SSE 13.8 mph 23.0 mph N/A   Clear
7:15 PM 95.5 °F 94.8 °F 58.3 °F 29% 29.89 in 10.0 mi SSE 12.7 mph 20.7 mph N/A   Clear
7:35 PM 94.8 °F 94.2 °F 58.5 °F 30% 29.89 in 10.0 mi SSE 13.8 mph 19.6 mph N/A   Clear
7:55 PM 94.1 °F 93.5 °F 59.2 °F 31% 29.89 in 10.0 mi SSE 10.4 mph 20.7 mph N/A   Clear
8:15 PM 93.0 °F 92.7 °F 60.3 °F 33% 29.89 in 10.0 mi SSE 8.1 mph - N/A   Clear
8:35 PM 91.8 °F 91.9 °F 61.2 °F 36% 29.89 in 10.0 mi SE 6.9 mph - N/A   Clear
8:55 PM 91.4 °F 91.4 °F 61.0 °F 36% 29.90 in 10.0 mi SE 8.1 mph - N/A   Clear
9:15 PM 90.7 °F 90.7 °F 61.2 °F 37% 29.90 in 10.0 mi SE 8.1 mph - N/A   Clear
9:35 PM 90.0 °F 90.0 °F 61.5 °F 38% 29.91 in 10.0 mi SE 8.1 mph - N/A   Clear
9:55 PM 89.4 °F 89.5 °F 61.7 °F 39% 29.92 in 10.0 mi SE 4.6 mph - N/A   Clear
10:15 PM 87.8 °F 88.2 °F 62.2 °F 42% 29.92 in 10.0 mi ESE 6.9 mph - N/A   Clear
10:35 PM 88.2 °F 88.4 °F 61.9 °F 41% 29.93 in 10.0 mi SE 9.2 mph - N/A   Clear
10:55 PM 87.8 °F 88.8 °F 63.7 °F 44% 29.94 in 10.0 mi SE 8.1 mph - N/A   Clear
11:15 PM 87.8 °F 89.4 °F 64.8 °F 46% 29.93 in 10.0 mi SE 9.2 mph 17.3 mph N/A   Clear
11:35 PM 87.6 °F 89.4 °F 65.3 °F 47% 29.93 in 10.0 mi SE 9.2 mph - N/A   Clear
11:55 PM 86.9 °F 88.9 °F 65.7 °F 49% 29.93 in 10.0 mi SE 9.2 mph - N/A   Clear